Preview of NWS' New Version of Forecast
This preview is not operational and should not be used for support decisions.

Regional Weather Roundup (RWR)

Issued by National Weather Service (NWS)

                            
618 
ASUS43 KTOP 212308
RWRKS 

WEATHER ROUNDUP FOR KANSAS
NATIONAL WEATHER SERVICE GOODLAND KS
600 PM CDT THU JUN 21 2018

NOTE:  "FAIR" INDICATES FEW OR NO CLOUDS BELOW 12,000 FEET WITH NO
SIGNIFICANT WEATHER AND/OR OBSTRUCTIONS TO VISIBILITY.

KSZ001>006-013>018-027>032-041>047-220000-
NORTHWEST KANSAS
  
CITY           SKY/WX    TMP DP  RH WIND       PRES   REMARKS
GOODLAND       SUNNY     81  53  37 N9        30.03F                  
HAYS           SUNNY     83  51  33 N18       29.92S                  
HILL CITY      SUNNY     83  52  34 N16G26    29.95S                  
RUSSELL        MOSUNNY   84  54  35 N24G31    29.89F                  
$$

KSZ061>065-074>080-084>089-220000-
SOUTHWEST KANSAS
  
CITY           SKY/WX    TMP DP  RH WIND       PRES   REMARKS
DODGE CITY     SUNNY     86  53  32 NW13G23   29.95F                  
ELKHART        SUNNY     92  63  38 SE8       29.97F                  
GARDEN CITY    SUNNY     84  55  36 N13       29.97F                  
GREAT BEND     SUNNY     84  54  35 NW18G24   29.90F                  
LIBERAL        SUNNY     86  61  42 CALM      29.98F                  
PRATT          SUNNY     85  51  30 NW16G23   29.91F                  
$$

KSZ066>073-081>083-090>101-220000-
SOUTHEAST KANSAS
  
CITY           SKY/WX    TMP DP  RH WIND       PRES   REMARKS
CHANUTE        PTSUNNY   81  57  43 NW21G37   29.79S                  
COFFEYVILLE    MOSUNNY   87  55  33 NW15      29.78S                  
HUTCHINSON     SUNNY     85  54  34 N22G32    29.86S                  
MEDICINE LODGE   N/A     87  56  34 NW15G29   29.87F                  
NEWTON         MOSUNNY   83  55  38 N26G37    29.85S                  
PARSONS        MOSUNNY   83  57  41 NW16G25   29.81R                  
WICHITA INTL   MOSUNNY   89  50  26 NW29G41   29.83F                  
WICHITA JABRA  MOSUNNY   86  50  28 NW21G36   29.83F                  
WICHITA MCCONL SUNNY     87  49  26 NW21G30   29.83F                  
WINFIELD       SUNNY     88  52  29 NW18G29   29.84F                  
$$

KSZ007>012-019>026-033>040-048>060-102>105-220000-
NORTHEAST KANSAS
  
CITY           SKY/WX    TMP DP  RH WIND       PRES   REMARKS
CONCORDIA      CLOUDY    75  61  61 N14G24    29.87F                  
EMPORIA        PTSUNNY   78  58  49 NW22G35   29.82S                  
MANHATTAN      CLOUDY    73  62  68 NW10G22   29.83S                  
MARYSVILLE     CLOUDY    68  63  83 NW14G21   29.83S                  
OLATHE IND     PTSUNNY   69  65  86 W18G28    29.77S                  
OLATHE EXE     CLOUDY    68  63  84 W12       29.76R                  
SALINA         CLOUDY    76  59  55 N18       29.88R                  
TOPEKA BILLARD LGT RAIN  67  66  97 W9        29.79R                  
$$